Regional Weather Roundup
Issued by NWS

Home | Current Version | Previous Version | Graphics & Text | Print | Product List | Glossary On
Versions: 1 2 3 4 5 6 7 8 9 10 11 12 13 14 15 16 17 18 19 20 21 22 23 24 25 26 27 28 29 30 31 32 33 34 35 36 37 38 39 40 41 42 43 44 45 46 47 48 49 50
000
ASUS43 KIND 010359
RWRIN

WEATHER ROUNDUP FOR INDIANA
NATIONAL WEATHER SERVICE INDIANAPOLIS IN
1200 AM EDT SAT AUG 01 2015

NOTE: "FAIR" INDICATES FEW OR NO CLOUDS BELOW 12,000 FEET WITH NO
SIGNIFICANT WEATHER AND/OR OBSTRUCTIONS TO VISIBILITY.

* - STATION DOES NOT REPORT WEATHER SUCH AS PRECIPITATION OR FOG.

+ - STATION NOT QUALITY CONTROLLED BY THE NATIONAL WEATHER SERVICE.
    USE DATA WITH CAUTION...ESPECIALLY DEWPOINT AND RELATIVE
    HUMIDITY OBSERVATIONS.

INZ001>003-010>013-019-020-010500-
NORTHWEST INDIANA

CITY           SKY/WX    TMP DP  RH WIND       PRES   REMARKS
KNOX *+        CLEAR     61  59  94 CALM      29.97R
MONTICELLO +   CLEAR     66  61  83 W3        29.98R
RENSSELAER +   CLEAR     68  57  68 W3        29.99R

$$

LMZ046-743>745-010500-
SOUTHERN LAKE MICHIGAN

STATION/POSITION TIME  TEMP    WIND        PRES    WAVE
                       AIR SEA DIR/SP/G            HT
                 (UTC) (F)     (DEG/KT/KT) (MB)    (FT)
BURNS HARBOR     0300   75     320/  7/  8 1015.2R
MICHIGAN CITY    0300   75     290/ 11/ 12   N/A
5NW MICH CITY    0300   76 74  320/ 10/ 12   N/A     2

$$

INZ004-005-014>016-021>024-010500-
NORTH CENTRAL INDIANA

CITY           SKY/WX    TMP DP  RH WIND       PRES   REMARKS
GOSHEN         CLEAR     62  55  77 CALM      29.96S
SOUTH BEND     CLEAR     63  56  78 W5        29.97R
WARSAW +       CLEAR     61  57  88 CALM      29.97S

$$

INZ006>009-017-018-025>027-010500-
NORTHEAST INDIANA

CITY           SKY/WX    TMP DP  RH WIND       PRES   REMARKS
ANGOLA *+      CLEAR     63  54  72 CALM      29.96S
FORT WAYNE     CLEAR     65  57  75 W3        29.97S

$$

INZ028-029-035-036-043>045-051>053-010500-
WEST CENTRAL INDIANA

CITY           SKY/WX    TMP DP  RH WIND       PRES   REMARKS
CRAWFORDSVL +  CLEAR     63  62  98 CALM        N/A
GREENCASTLE +  CLEAR     73  54  49 NW3       30.02S
LAFAYETTE      CLEAR     66  62  87 CALM      29.99R
TERRE HAUTE    CLEAR     66  61  84 CALM      30.01R

$$

INZ030>032-037>040-046>048-054>057-064-065-010500-
CENTRAL INDIANA

CITY           SKY/WX    TMP DP  RH WIND       PRES   REMARKS
FRANKFORT +    CLEAR    N/A N/A N/A SW6       30.02R
GREENWOOD *+   CLEAR     70  57  64 W5        30.01R
INDIANAPOLIS   CLEAR     71  59  65 W8        29.99R
-EAGLE CREEK   CLEAR     72  61  68 W7        29.99S
KOKOMO *+      CLEAR     66  55  68 W6        29.99R
MT COMFORT *+  CLEAR     68  57  68 W7        30.00R
SHELBYVILLE    CLEAR     71  60  68 SW6       29.99R

$$

INZ033-034-041-042-049-050-058-059-010500-
EAST CENTRAL INDIANA

CITY           SKY/WX    TMP DP  RH WIND       PRES   REMARKS
MUNCIE         CLEAR     66  59  78 W7        29.99R

$$

INZ060-061-067>069-081>083-085>088-010500-
SOUTHWEST INDIANA

CITY           SKY/WX    TMP DP  RH WIND       PRES   REMARKS
EVANSVILLE     CLEAR     76  69  79 W5        30.03R
HUNTINGBURG *+ CLEAR     72  66  83 CALM      30.03R

$$

INZ062-063-066-070>080-084-089>092-010500-
SOUTH CENTRAL AND SOUTHEAST INDIANA

CITY           SKY/WX    TMP DP  RH WIND       PRES   REMARKS
BLOOMINGTON    CLEAR     65  61  87 CALM      30.02S
MADISON *+     CLEAR     72  61  68 CALM      30.03S
SEYMOUR +      CLEAR     70  61  73 CALM      30.00S

$$




USA.gov is the U.S. government's official web portal to all federal, state and local government web resources and services.